TimeCDT,TemperatureF,Dew PointF,Humidity,Sea Level PressureIn,VisibilityMPH,Wind Direction,Wind SpeedMPH,Gust SpeedMPH,PrecipitationIn,Events,Conditions,WindDirDegrees,DateUTC
12:15 AM,-9999,-9999,N/A,29.96,10.0,South,12.7,-,N/A,,Mostly Cloudy,170,2012-10-23 05:15:00
12:35 AM,-9999,-9999,N/A,29.95,10.0,South,10.4,16.1,N/A,,Scattered Clouds,170,2012-10-23 05:35:00
1:35 AM,-9999,-9999,N/A,29.95,10.0,SSE,11.5,-,N/A,,Mostly Cloudy,160,2012-10-23 06:35:00
1:55 AM,-9999,-9999,N/A,29.94,10.0,SSE,12.7,16.1,N/A,,Partly Cloudy,160,2012-10-23 06:55:00
3:35 AM,-9999,-9999,N/A,29.93,10.0,SSE,12.7,18.4,N/A,,Scattered Clouds,160,2012-10-23 08:35:00
3:55 AM,-9999,-9999,N/A,29.94,10.0,South,9.2,-,N/A,,Scattered Clouds,170,2012-10-23 08:55:00
4:35 AM,-9999,-9999,N/A,29.94,10.0,South,11.5,-,N/A,,Overcast,180,2012-10-23 09:35:00
4:55 AM,-9999,-9999,N/A,29.94,10.0,South,12.7,-,N/A,,Mostly Cloudy,180,2012-10-23 09:55:00
5:55 AM,-9999,-9999,N/A,29.94,10.0,South,10.4,-,N/A,,Partly Cloudy,180,2012-10-23 10:55:00
6:16 AM,-9999,-9999,N/A,29.94,10.0,South,11.5,-,N/A,,Clear,170,2012-10-23 11:16:00
6:35 AM,-9999,-9999,N/A,29.94,10.0,South,11.5,-,N/A,,Clear,170,2012-10-23 11:35:00
7:35 AM,-9999,-9999,N/A,29.94,10.0,South,12.7,18.4,N/A,,Clear,170,2012-10-23 12:35:00
7:55 AM,-9999,-9999,N/A,29.95,10.0,South,13.8,18.4,N/A,,Clear,170,2012-10-23 12:55:00
8:35 AM,-9999,-9999,N/A,29.95,10.0,South,18.4,24.2,N/A,,Clear,170,2012-10-23 13:35:00
8:55 AM,-9999,-9999,N/A,29.96,10.0,South,16.1,21.9,N/A,,Clear,190,2012-10-23 13:55:00
9:15 AM,-9999,-9999,N/A,29.96,10.0,South,19.6,26.5,N/A,,Clear,180,2012-10-23 14:15:00
9:35 AM,-9999,-9999,N/A,29.97,10.0,South,19.6,25.3,N/A,,Partly Cloudy,190,2012-10-23 14:35:00
9:55 AM,-9999,-9999,N/A,29.97,10.0,SSW,25.3,31.1,N/A,,Mostly Cloudy,200,2012-10-23 14:55:00
10:55 AM,-9999,-9999,N/A,29.97,10.0,South,23.0,26.5,N/A,,Overcast,190,2012-10-23 15:55:00
11:15 AM,-9999,-9999,N/A,29.97,10.0,South,18.4,-,N/A,,Overcast,190,2012-10-23 16:15:00
11:35 AM,-9999,-9999,N/A,29.97,10.0,South,16.1,21.9,N/A,,Overcast,180,2012-10-23 16:35:00
11:55 AM,-9999,-9999,N/A,29.97,10.0,South,19.6,23.0,N/A,,Overcast,190,2012-10-23 16:55:00
12:15 PM,-9999,-9999,N/A,29.96,10.0,South,15.0,24.2,N/A,,Overcast,180,2012-10-23 17:15:00
12:35 PM,-9999,-9999,N/A,29.96,10.0,South,13.8,21.9,N/A,,Overcast,180,2012-10-23 17:35:00
12:55 PM,-9999,-9999,N/A,29.95,10.0,South,19.6,26.5,N/A,,Overcast,190,2012-10-23 17:55:00
1:15 PM,-9999,-9999,N/A,29.94,10.0,South,20.7,28.8,N/A,,Overcast,190,2012-10-23 18:15:00
1:35 PM,-9999,-9999,N/A,29.94,10.0,South,18.4,-,N/A,,Overcast,180,2012-10-23 18:35:00
1:55 PM,-9999,-9999,N/A,29.93,10.0,South,15.0,-,N/A,,Overcast,190,2012-10-23 18:55:00
2:15 PM,-9999,-9999,N/A,29.92,10.0,South,16.1,24.2,N/A,,Overcast,180,2012-10-23 19:15:00
2:35 PM,-9999,-9999,N/A,29.92,10.0,South,17.3,-,N/A,,Overcast,190,2012-10-23 19:35:00
3:15 PM,-9999,-9999,N/A,29.91,10.0,South,15.0,20.7,N/A,,Overcast,180,2012-10-23 20:15:00
3:35 PM,-9999,-9999,N/A,29.91,10.0,South,16.1,-,N/A,,Overcast,180,2012-10-23 20:35:00
3:55 PM,-9999,-9999,N/A,29.90,10.0,South,16.1,24.2,N/A,,Overcast,180,2012-10-23 20:55:00
4:15 PM,-9999,-9999,N/A,29.90,10.0,South,13.8,19.6,N/A,,Overcast,180,2012-10-23 21:15:00
4:35 PM,-9999,-9999,N/A,29.90,10.0,South,13.8,-,N/A,,Overcast,180,2012-10-23 21:35:00
5:15 PM,-9999,-9999,N/A,29.90,10.0,South,13.8,20.7,N/A,,Overcast,180,2012-10-23 22:15:00
5:35 PM,-9999,-9999,N/A,29.89,10.0,South,16.1,23.0,N/A,,Overcast,180,2012-10-23 22:35:00
5:56 PM,-9999,-9999,N/A,29.90,10.0,South,15.0,-,N/A,,Overcast,180,2012-10-23 22:56:00
6:35 PM,-9999,-9999,N/A,29.89,10.0,South,15.0,19.6,N/A,,Overcast,170,2012-10-23 23:35:00
6:55 PM,-9999,-9999,N/A,29.90,10.0,South,13.8,-,N/A,,Overcast,180,2012-10-23 23:55:00
6:56 PM,-9999,-9999,N/A,29.90,10.0,South,15.0,-,N/A,,Overcast,180,2012-10-23 23:56:00
7:15 PM,-9999,-9999,N/A,29.90,10.0,South,15.0,19.6,N/A,,Overcast,180,2012-10-24 00:15:00
7:35 PM,-9999,-9999,N/A,29.91,10.0,South,12.7,-,N/A,,Mostly Cloudy,180,2012-10-24 00:35:00
7:56 PM,-9999,-9999,N/A,29.91,10.0,South,15.0,-,N/A,,Mostly Cloudy,170,2012-10-24 00:56:00
8:15 PM,-9999,-9999,N/A,29.91,10.0,South,17.3,25.3,N/A,,Mostly Cloudy,180,2012-10-24 01:15:00
8:35 PM,-9999,-9999,N/A,29.92,10.0,South,18.4,23.0,N/A,,Overcast,180,2012-10-24 01:35:00
8:56 PM,-9999,-9999,N/A,29.92,10.0,South,15.0,21.9,N/A,,Overcast,180,2012-10-24 01:56:00
9:15 PM,-9999,-9999,N/A,29.93,10.0,South,12.7,18.4,N/A,,Overcast,170,2012-10-24 02:15:00
9:36 PM,-9999,-9999,N/A,29.93,10.0,South,11.5,21.9,N/A,,Overcast,170,2012-10-24 02:36:00
9:55 PM,-9999,-9999,N/A,29.94,10.0,South,13.8,21.9,N/A,,Overcast,180,2012-10-24 02:55:00
10:15 PM,-9999,-9999,N/A,29.94,10.0,South,11.5,-,N/A,,Overcast,170,2012-10-24 03:15:00
11:35 PM,-9999,-9999,N/A,29.94,10.0,South,12.7,18.4,N/A,,Overcast,170,2012-10-24 04:35:00
11:55 PM,-9999,-9999,N/A,29.94,10.0,South,13.8,-,N/A,,Overcast,170,2012-10-24 04:55:00